THOR ABLESTAR DEB, 210

Orbit data source: Space-Track

THOR ABLESTAR DEB, 210 is space debris in LEO originally from a launch on Thu, 29 Jun 1961 UTC launched from the Air Force Eastern Test Range (AFETR). Debris objects in space refer to the collection of defunct objects orbiting the Earth. Examples of debris include non-operational satellites, rocket bodies, and fragments generated from explosions, collisions, or faulty payload assembly.

Loading next visibility...
Identifier
210, 1961-015BE
Orbit
LEO
Country
Flag of USUS
Related business
Manufacturer
Unknown
Mission
Spacecraft
Bus & Motor
Unknown
Mass
Unknown
Launch date (UTC)
1961-06-29 (65 years ago)
Launch vehicle
Unknown
Launch site
Air Force Eastern Test Range (AFETR)
Object type
Payload
Rocket body
Debris
Shape & HBR
Unknown shape, 0.2 m
Radar Cross Section
Medium (>0.1 m² and <1 m²)

Expand to show TLE details & history
Last TLE update: 10 hours ago

TLE from 10 hours ago
0 THOR ABLESTAR DEB
1 00210U 61015BE  26256.40186994  .00000337  00000-0  33850-3 0  9993
2 00210  66.4565 147.7767 0053238 259.3226 100.1852 13.89159632277657
Epoch: 2026-09-13T09:38Z
TLE epoch observation values (Epoch: 2026-09-13T09:38:41.562Z)
Latitude
0.00001°
Longitude
10.70649°
Altitude
940.708 km
Speed
7.378 km/s
True Right ascension
09h 51m 06s
True Declination
0° 00' 00"
Sunlit
Object was in daylight at epoch
Visualization orbit readout
Latitude
Unknown
Longitude
Unknown
Altitude
Unknown
Speed
Unknown
Apparent Right ascension
Unknown
Apparent Declination
Unknown
Sunlit
N/A
Visualization observer readout
Local Sidereal Time
12:35:39
Azimuth
Unknown
Elevation
Unknown
Doppler factor
Unknown
Orbital elements
Apogee altitude
968.919 km
Perigee altitude
891.104 km
Semi-major axis
7,308.148 km
Eccentricity
0.00532
Inclination
66.4565°
RAAN
147.7767°
Arg. of periapsis
259.3226°
True anomaly
100.78493°
Mean anomaly
100.1852°
Eccentric anomaly
100.48514°
Mean motion
3.47402 °/min
Orbital period
103.63 mins
BSTAR
0.0003385
Loading maneuver chart data...
Computing Atmospheric mass density...

Documentation

Showing up to 5 results
|